Newton, KS

5:59 AM CDT on May 26, 2017 (GMT -0500)
Newton City County

Weather History for KEWK - June, 2013

Change the Weather History Date:

Wednesday, June 26, 2013

  Actual Average Record
Temperature  
Mean Temperature 86 °F -  
Max Temperature 100 °F 83 °F 105 °F (2012)
Min Temperature 71 °F 63 °F 53 °F (2003)
Cooling Degree Days 20    
Growing Degree Days 36 (Base 50)    
Moisture  
Dew Point 66 °F    
Average Humidity 53    
Maximum Humidity 83    
Minimum Humidity 27    
Precipitation  
Precipitation 0.00 in - - ()
Sea Level Pressure  
Sea Level Pressure 29.87 in    
Wind  
Wind Speed 9 mph (SSE)    
Max Wind Speed 14 mph    
Max Gust Speed 17 mph    
Visibility 10 miles    
Events      
Averages and records for this station are not official NWS values.
T = Trace of Precipitation, MM = Missing Value Source: NWS Daily Summary

Daily Weather History Graph

Daily Weather History Graph

Search for Another Location

Airport or City:

Trip Planner

Search our weather history database for the weather conditions in past years. The results will help you decide how hot, cold, wet, or windy it might be!

Date:

Astronomy

Jun. 26, 2013 Rise Set
Actual Time 6:08 AM CDT 8:55 PM CDT
Civil Twilight 5:36 AM CDT 9:27 PM CDT
Nautical Twilight 4:57 AM CDT 10:06 PM CDT
Astronomical Twilight 4:12 AM CDT 10:51 PM CDT
Moon 11:24 PM CDT 9:57 AM CDT
Length of Visible Light 15h 50m
Length of Day
14h 47m
Waning Gibbous, 85% of the Moon is Illuminated
Jun 26
Waning Gibbous
Jun 29
Last Quarter
Jul 8
New
Jul 15
First Quarter
Jul 22
Full

Hourly Weather History & Observations

Time (CDT) Temp. Heat Index Dew Point Humidity Pressure Visibility Wind Dir Wind Speed Gust Speed Precip Events Conditions
12:15 AM 80.6 °F 83.2 °F 68.0 °F 65% 29.83 in 10.0 mi South 12.7 mph - N/A   Clear
12:35 AM 78.8 °F - 68.0 °F 69% 29.83 in 10.0 mi South 10.4 mph - N/A   Clear
12:55 AM 78.8 °F - 68.0 °F 69% 29.83 in 10.0 mi South 10.4 mph - N/A   Clear
1:15 AM 78.8 °F - 68.0 °F 69% 29.83 in 10.0 mi South 10.4 mph - N/A   Clear
1:35 AM 77.0 °F - 68.0 °F 74% 29.83 in 10.0 mi South 9.2 mph - N/A   Clear
1:55 AM 77.0 °F - 68.0 °F 74% 29.82 in 10.0 mi South 10.4 mph - N/A   Clear
2:15 AM 77.0 °F - 68.0 °F 74% 29.82 in 10.0 mi South 10.4 mph - N/A   Clear
2:35 AM 77.0 °F - 68.0 °F 74% 29.81 in 10.0 mi South 11.5 mph - N/A   Clear
2:55 AM 77.0 °F - 68.0 °F 74% 29.81 in 10.0 mi SSW 10.4 mph - N/A   Clear
3:15 AM 77.0 °F - 68.0 °F 74% 29.81 in 10.0 mi South 8.1 mph - N/A   Clear
3:35 AM 75.2 °F - 68.0 °F 78% 29.81 in 10.0 mi South 6.9 mph - N/A   Clear
3:55 AM 75.2 °F - 66.2 °F 73% 29.81 in 10.0 mi SSW 6.9 mph - N/A   Clear
4:15 AM 73.4 °F - 66.2 °F 78% 29.81 in 10.0 mi South 5.8 mph - N/A   Clear
4:35 AM 73.4 °F - 66.2 °F 78% 29.82 in 10.0 mi South 4.6 mph - N/A   Clear
4:55 AM 73.4 °F - 66.2 °F 78% 29.82 in 10.0 mi South 5.8 mph - N/A   Clear
5:15 AM 73.4 °F - 66.2 °F 78% 29.82 in 10.0 mi SSW 5.8 mph - N/A   Clear
5:35 AM 71.6 °F - 66.2 °F 83% 29.83 in 10.0 mi SSW 5.8 mph - N/A   Clear
5:55 AM 73.4 °F - 66.2 °F 78% 29.83 in 10.0 mi SSW 8.1 mph - N/A   Clear
6:15 AM 73.4 °F - 66.2 °F 78% 29.84 in 10.0 mi SSW 9.2 mph - N/A   Clear
6:35 AM 73.4 °F - 66.2 °F 78% 29.85 in 10.0 mi South 5.8 mph - N/A   Clear
6:55 AM 73.4 °F - 66.2 °F 78% 29.85 in 10.0 mi SSW 8.1 mph - N/A   Clear
7:15 AM 73.4 °F - 66.2 °F 78% 29.86 in 10.0 mi SSW 8.1 mph - N/A   Clear
7:35 AM 75.2 °F - 66.2 °F 73% 29.86 in 10.0 mi SSW 9.2 mph - N/A   Clear
7:55 AM 78.8 °F - 66.2 °F 65% 29.87 in 10.0 mi SSW 9.2 mph - N/A   Clear
8:15 AM 78.8 °F - 66.2 °F 65% 29.87 in 10.0 mi SSW 10.4 mph - N/A   Clear
8:35 AM 80.6 °F 82.7 °F 66.2 °F 61% 29.87 in 10.0 mi SSW 13.8 mph - N/A   Clear
8:55 AM 82.4 °F 84.6 °F 66.2 °F 58% 29.88 in 10.0 mi SSW 11.5 mph - N/A   Clear
9:15 AM 82.4 °F 84.6 °F 66.2 °F 58% 29.88 in 10.0 mi SW 6.9 mph - N/A   Clear
9:35 AM 84.2 °F 86.6 °F 66.2 °F 55% 29.89 in 10.0 mi SW 5.8 mph - N/A   Clear
9:55 AM 86.0 °F 88.2 °F 66.2 °F 51% 29.89 in 10.0 mi West 6.9 mph - N/A   Clear
10:15 AM 87.8 °F 90.4 °F 66.2 °F 49% 29.89 in 10.0 mi WNW 3.5 mph - N/A   Clear
10:35 AM 87.8 °F 90.4 °F 66.2 °F 49% 29.89 in 10.0 mi NNW 4.6 mph - N/A   Clear
10:55 AM 91.4 °F 94.0 °F 66.2 °F 43% 29.90 in 10.0 mi North 6.9 mph - N/A   Clear
11:15 AM 91.4 °F 94.0 °F 66.2 °F 43% 29.90 in 10.0 mi NNE 11.5 mph 17.3 mph N/A   Clear
11:35 AM 93.2 °F 97.7 °F 68.0 °F 44% 29.90 in 10.0 mi NE 12.7 mph - N/A   Clear
11:55 AM 93.2 °F 96.2 °F 66.2 °F 41% 29.90 in 10.0 mi NNE 9.2 mph - N/A   Clear
12:15 PM 93.2 °F 97.7 °F 68.0 °F 44% 29.90 in 10.0 mi NE 6.9 mph - N/A   Clear
12:35 PM 95.0 °F 99.5 °F 68.0 °F 41% 29.90 in 10.0 mi ENE 9.2 mph - N/A   Clear
12:55 PM 95.0 °F 98.5 °F 66.2 °F 39% 29.90 in 10.0 mi NE 9.2 mph - N/A   Clear
1:15 PM 96.8 °F 100.7 °F 66.2 °F 37% 29.90 in 10.0 mi ENE 9.2 mph - N/A   Clear
1:35 PM 96.8 °F 99.0 °F 64.4 °F 34% 29.90 in 10.0 mi ENE 5.8 mph - N/A   Clear
1:55 PM 98.6 °F 102.8 °F 66.2 °F 35% 29.90 in 10.0 mi ENE 9.2 mph - N/A   Clear
2:15 PM 98.6 °F 102.8 °F 66.2 °F 35% 29.89 in 10.0 mi NNE 10.4 mph - N/A   Clear
2:35 PM 98.6 °F 102.8 °F 66.2 °F 35% 29.90 in 10.0 mi ESE 6.9 mph - N/A   Clear
2:55 PM 98.6 °F 101.0 °F 64.4 °F 32% 29.89 in 10.0 mi SE 5.8 mph - N/A   Clear
3:15 PM 98.6 °F 102.8 °F 66.2 °F 35% 29.90 in 10.0 mi East 10.4 mph - N/A   Clear
3:35 PM 98.6 °F 101.0 °F 64.4 °F 32% 29.90 in 10.0 mi East 6.9 mph - N/A   Clear
3:55 PM 98.6 °F 101.0 °F 64.4 °F 32% 29.90 in 10.0 mi SE 9.2 mph - N/A   Clear
4:15 PM 98.6 °F 101.0 °F 64.4 °F 32% 29.90 in 10.0 mi ESE 9.2 mph - N/A   Clear
4:35 PM 100.4 °F 103.6 °F 64.4 °F 31% 29.90 in 10.0 mi East 9.2 mph - N/A   Clear
4:55 PM 98.6 °F 101.0 °F 64.4 °F 32% 29.90 in 10.0 mi ESE 9.2 mph - N/A   Clear
5:15 PM 100.4 °F 103.6 °F 64.4 °F 31% 29.89 in 10.0 mi SE 6.9 mph - N/A   Clear
5:35 PM 98.6 °F 101.0 °F 64.4 °F 32% 29.89 in 10.0 mi SE 10.4 mph - N/A   Clear
5:55 PM 98.6 °F 100.0 °F 62.6 °F 30% 29.89 in 10.0 mi SE 4.6 mph - N/A   Clear
6:15 PM 100.4 °F 101.3 °F 60.8 °F 27% 29.88 in 10.0 mi SE 10.4 mph - N/A   Clear
6:35 PM 98.6 °F 101.0 °F 64.4 °F 32% 29.88 in 10.0 mi SSE 9.2 mph - N/A   Clear
6:55 PM 98.6 °F 101.0 °F 64.4 °F 32% 29.89 in 10.0 mi ESE 8.1 mph - N/A   Clear
7:15 PM 98.6 °F 101.0 °F 64.4 °F 32% 29.88 in 10.0 mi ESE 8.1 mph - N/A   Clear
7:35 PM 96.8 °F 99.0 °F 64.4 °F 34% 29.89 in 10.0 mi SSE 9.2 mph - N/A   Clear
7:55 PM 96.8 °F 99.0 °F 64.4 °F 34% 29.90 in 10.0 mi SSE 9.2 mph - N/A   Clear
8:15 PM 93.2 °F 96.2 °F 66.2 °F 41% 29.90 in 10.0 mi SSE 8.1 mph - N/A   Clear
8:35 PM 91.4 °F 94.0 °F 66.2 °F 43% 29.90 in 10.0 mi SSE 9.2 mph - N/A   Clear
8:55 PM 89.6 °F 92.2 °F 66.2 °F 46% 29.91 in 10.0 mi SSE 6.9 mph - N/A   Clear
9:15 PM 87.8 °F 90.4 °F 66.2 °F 49% 29.92 in 10.0 mi SSE 6.9 mph - N/A   Clear